Location: Petrozavodsk
(61.7955°N, 34.3748°E)
Time: 23:56:25
(UTC+03:00)

Envisat - Pass Details

Date: 26 March 2023
Orbit: 763 x 765 km, 98.2° (Epoch: 31 May)

Event Time Altitude Azimuth Distance (km) Brightness Sun altitude
Rises 03:30:14 0° 20° (NNE) 3,249 7.5 -19.2°
Reaches altitude 10° 03:33:08 10° 37° (NE) 2,318 6.7 -18.9°
Maximum altitude 03:36:56 21° 85° (E) 1,688 5.4 -18.6°
Drops below altitude 10° 03:40:44 10° 134° (SE) 2,306 5.5 -18.3°
Sets 03:43:35 0° 150° (SSE) 3,227 6.1 -18.0°
